Location: La Sioule Rivi�re
(46.3664°N, 3.3197°E)
Time: 12:40:02
(UTC+00:00)

ATLAS 5 CENTAUR R/B - Pass Details

Date: 29 October 2020
Orbit: 531 x 1127 km, 63.4° (Epoch: 22 November)

Event Time Altitude Azimuth Distance (km) Brightness Sun altitude
Rises 19:55:02 0° 321° (NW) 3,084 5.9 -34.6°
Reaches altitude 10° 19:58:04 10° 342° (NNW) 2,278 4.8 -35.1°
Enters shadow 19:59:01 13° 352° (N) 2,101 4.5 -35.3°
